EW6229 Weather Reports


Display with metric or nautical units.
time (UTC)temp
F
wind
direction
speed
MPH
gust
MPH
rain 1hr
in
rain 24hr
in
rain mn
in
humidity
%
barometer
mb
20260507172229 45 321 2.0 4.0 0.00 0.18 0.18 96 1014.9
20260507171729 45 339 1.0 4.0 0.00 0.18 0.18 95 1014.8
20260507171509 45 228 0.0 2.0 0.00 0.18 0.18 95 1014.8
20260507170729 45 228 0.0 0.0 0.00 0.18 0.18 95 1014.6
20260507170229 45 228 0.0 0.0 0.00 0.18 0.18 95 1014.7
20260507165729 46 228 0.0 2.0 0.00 0.18 0.18 94 1014.7
20260507165230 46 312 0.0 2.0 0.00 0.18 0.18 94 1014.6
20260507164726 46 312 1.0 4.0 0.00 0.18 0.18 94 1014.7
20260507164220 46 217 1.0 4.0 0.00 0.18 0.18 94 1014.5
20260507163946 46 198 2.0 3.0 0.00 0.18 0.18 93 1014.5
20260507163208 46 198 2.0 3.0 0.00 0.18 0.18 94 1014.5
20260507162708 46 226 1.0 3.0 0.01 0.18 0.18 95 1014.5
20260507162206 45 226 1.0 3.0 0.01 0.18 0.18 95 1014.6
20260507161707 46 292 1.0 2.0 0.01 0.18 0.18 94 1014.7
20260507161206 46 292 0.0 2.0 0.01 0.18 0.18 94 1014.7
20260507160706 46 292 0.0 2.0 0.02 0.18 0.18 94 1014.6
20260507160206 46 292 0.0 1.0 0.02 0.18 0.18 93 1014.7
20260507155930 46 292 0.0 1.0 0.02 0.18 0.18 92 1014.6
20260507155205 46 292 0.0 1.0 0.02 0.18 0.18 92 1014.6
20260507154705 46 292 0.0 0.0 0.02 0.18 0.18 94 1014.5
20260507154206 46 292 0.0 0.0 0.02 0.18 0.18 94 1014.6
20260507153707 45 292 0.0 0.0 0.02 0.18 0.18 94 1014.6
20260507153208 45 292 0.0 1.0 0.02 0.18 0.18 95 1014.5
20260507152704 45 292 0.0 2.0 0.02 0.17 0.17 95 1014.6
20260507152204 46 292 0.0 2.0 0.02 0.17 0.17 95 1014.7
20260507151703 45 292 0.0 2.0 0.02 0.17 0.17 95 1014.6
20260507151203 45 292 1.0 2.0 0.02 0.17 0.17 95 1014.6
20260507150703 45 292 1.0 2.0 0.02 0.17 0.17 95 1014.6
20260507150203 45 292 1.0 3.0 0.02 0.17 0.17 95 1014.7
20260507145703 45 292 1.0 3.0 0.02 0.17 0.17 95 1014.6
20260507145204 45 322 2.0 3.0 0.02 0.16 0.16 95 1014.6
20260507144709 46 322 1.0 3.0 0.02 0.16 0.16 95 1014.6
20260507144205 46 322 1.0 3.0 0.03 0.16 0.16 96 1014.6
20260507143925 46 355 1.0 2.0 0.03 0.16 0.16 95 1014.6
20260507143429 46 13 0.0 2.0 0.04 0.16 0.16 95 1014.8
20260507142703 45 13 0.0 2.0 0.04 0.16 0.16 94 1014.6
20260507142203 45 13 0.0 2.0 0.03 0.15 0.15 95 1014.6
20260507141701 45 13 0.0 2.0 0.04 0.15 0.15 95 1014.5
20260507141202 45 325 0.0 1.0 0.04 0.15 0.15 95 1014.5
20260507140702 45 325 0.0 2.0 0.04 0.15 0.14 95 1014.5
20260507140159 45 325 2.0 4.0 0.04 0.14 0.14 95 1014.4
20260507135658 45 325 2.0 5.0 0.04 0.14 0.14 95 1014.4
20260507135158 45 292 1.0 5.0 0.04 0.13 0.13 94 1014.4
20260507134657 45 344 0.0 0.0 0.05 0.13 0.13 94 1014.2
20260507134151 45 344 0.0 0.0 0.05 0.13 0.13 94 1014.2
20260507133646 45 344 0.0 1.0 0.08 0.13 0.13 94 1014.2
20260507133141 45 344 0.0 1.0 0.10 0.12 0.12 94 1014.2
20260507132642 45 344 0.0 0.0 0.12 0.12 0.12 93 1014.0
20260507132142 45 344 0.0 0.0 0.12 0.12 0.11 93 1014.0
20260507131640 45 344 0.0 0.0 0.11 0.11 0.11 92 1014.1
20260507131137 45 344 0.0 0.0 0.11 0.11 0.11 92 1014.1
20260507130636 45 344 1.0 4.0 0.11 0.11 0.11 90 1014.1
20260507130133 45 344 1.0 4.0 0.10 0.10 0.10 90 1014.0
20260507125634 45 234 3.0 13.0 0.10 0.10 0.09 90 1013.9
20260507125131 45 257 3.0 13.0 0.09 0.09 0.09 87 1013.8
20260507124637 46 276 4.0 16.0 0.07 0.07 0.07 84 1013.7
20260507124631 46 283 3.0 11.0 0.09 0.09 0.09 87 1013.8
20260507123631 47 263 8.0 20.0 0.04 0.04 0.03 82 1013.5
20260507123132 48 337 9.0 20.0 0.02 0.02 0.02 80 1013.2
20260507122631 49 246 10.0 21.0 0.00 0.00 0.00 76 1012.9
20260507122133 50 207 12.0 27.0 0.00 0.00 0.00 73 1012.8
20260507121636 51 238 14.0 28.0 0.00 0.00 0.00 68 1012.3
20260507121135 52 252 15.0 28.0 0.00 0.00 0.00 64 1012.2
20260507120632 53 296 14.0 25.0 0.00 0.00 0.00 62 1011.8
20260507120352 53 286 13.0 23.0 0.00 0.00 0.00 59 1011.7
20260507115622 54 296 9.0 23.0 0.00 0.00 0.00 56 1011.5
20260507115115 56 293 4.0 20.0 0.00 0.00 0.00 54 1011.5
20260507114609 58 97 5.0 12.0 0.00 0.00 0.00 54 1011.5
20260507114108 58 119 5.0 12.0 0.00 0.00 0.00 52 1011.4
20260507113608 57 113 7.0 15.0 0.00 0.00 0.00 55 1011.5
20260507113108 57 149 7.0 15.0 0.00 0.00 0.00 54 1011.5
20260507112607 57 133 5.0 13.0 0.00 0.00 0.00 55 1011.7
20260507112335 57 159 8.0 15.0 0.00 0.00 0.00 55 1011.7
20260507111604 56 150 8.0 15.0 0.00 0.00 0.00 57 1011.7
20260507111103 57 109 7.0 14.0 0.00 0.00 0.00 55 1011.7
20260507110603 55 173 9.0 16.0 0.00 0.00 0.00 59 1011.8
20260507105604 54 85 11.0 21.0 0.00 0.00 0.00 62 1011.9
20260507105106 54 134 11.0 25.0 0.00 0.00 0.00 60 1011.9
20260507104602 56 104 9.0 25.0 0.00 0.00 0.00 55 1011.8
20260507104101 56 163 7.0 14.0 0.00 0.00 0.00 50 1011.8
20260507103601 56 144 5.0 14.0 0.00 0.00 0.00 49 1011.7
20260507103101 57 177 2.0 9.0 0.00 0.00 0.00 49 1011.4
20260507102602 57 159 3.0 9.0 0.00 0.00 0.00 50 1011.4
20260507102102 58 117 5.0 13.0 0.00 0.00 0.00 48 1011.4
20260507101602 58 78 4.0 13.0 0.00 0.00 0.00 45 1011.4
20260507101057 59 117 4.0 12.0 0.00 0.00 0.00 48 1011.4
20260507100551 59 146 4.0 12.0 0.00 0.00 0.00 48 1011.5
20260507100047 59 118 3.0 12.0 0.00 0.00 0.00 48 1011.5
20260507095810 58 142 4.0 12.0 0.00 0.00 0.00 48 1011.7
20260507095314 57 126 4.0 10.0 0.00 0.00 0.00 50 1011.4
20260507094546 56 109 4.0 11.0 0.00 0.00 0.00 51 1011.8
20260507094047 56 108 4.0 11.0 0.00 0.00 0.00 52 1011.8
20260507093548 56 178 4.0 9.0 0.00 0.00 0.00 53 1011.8
20260507093047 56 132 4.0 11.0 0.00 0.00 0.00 51 1011.7
20260507092547 56 146 4.0 11.0 0.00 0.00 0.00 56 1011.5
20260507092048 55 165 3.0 10.0 0.00 0.00 0.00 55 1011.7
20260507091547 54 205 1.0 5.0 0.00 0.00 0.00 64 1011.8
20260507091047 53 155 1.0 3.0 0.00 0.00 0.00 65 1011.8
20260507090546 53 121 1.0 3.0 0.00 0.00 0.00 65 1011.8
20260507090309 53 273 1.0 5.0 0.00 0.00 0.00 66 1011.8
20260507085808 53 273 2.0 7.0 0.00 0.00 0.00 67 1011.8
20260507085047 53 309 2.0 8.0 0.00 0.00 0.00 68 1011.8
20260507084545 52 289 2.0 8.0 0.00 0.00 0.00 68 1011.8
20260507084045 53 344 2.0 8.0 0.00 0.00 0.00 70 1011.8
20260507083545 52 282 2.0 7.0 0.00 0.00 0.00 71 1011.8
20260507083044 52 263 2.0 7.0 0.00 0.00 0.00 72 1011.8
20260507083038 51 167 4.0 10.0 0.00 0.00 0.00 73 1011.8
20260507082045 51 327 5.0 11.0 0.00 0.00 0.00 74 1011.9
20260507081545 51 292 5.0 11.0 0.00 0.00 0.00 74 1011.8
20260507081303 51 315 4.0 10.0 0.00 0.00 0.00 74 1011.7
20260507080541 51 293 5.0 12.0 0.00 0.00 0.00 72 1011.8
20260507080306 52 298 5.0 12.0 0.00 0.00 0.00 72 1011.7
20260507075541 52 311 5.0 11.0 0.00 0.00 0.00 72 1011.7
20260507075040 53 321 4.0 10.0 0.00 0.00 0.00 73 1011.5
20260507074541 51 316 2.0 10.0 0.00 0.00 0.00 77 1011.5
20260507074040 50 32 0.0 3.0 0.00 0.00 0.00 74 1011.7
20260507073539 49 318 1.0 3.0 0.00 0.00 0.00 77 1011.8
20260507073037 50 318 1.0 3.0 0.00 0.00 0.00 78 1011.7
20260507072537 48 346 0.0 1.0 0.00 0.00 0.00 80 1011.9
20260507072037 48 44 0.0 3.0 0.00 0.00 0.00 79 1011.8
20260507071759 48 44 0.0 3.0 0.00 0.00 0.00 81 1011.8
20260507071031 47 44 0.0 3.0 0.00 0.00 0.00 81 1011.8
20260507070751 47 44 1.0 4.0 0.00 0.00 0.00 80 1011.8
20260507070033 47 44 1.0 4.0 0.00 0.00 0.00 80 1011.8
20260507065529 47 33 2.0 5.0 0.00 0.00 0.00 82 1011.8
20260507065245 46 58 1.0 5.0 0.00 0.00 0.00 85 1011.8
20260507064523 45 41 0.0 3.0 0.00 0.00 0.00 86 1011.9
20260507064021 45 44 0.0 2.0 0.00 0.00 0.00 87 1011.8
20260507063518 44 44 0.0 1.0 0.00 0.00 0.00 88 1011.7
20260507063018 44 44 0.0 2.0 0.00 0.00 0.00 89 1011.8
20260507062519 43 44 1.0 2.0 0.00 0.00 0.00 91 1011.8
20260507062246 42 326 2.0 3.0 0.00 0.00 0.00 92 1011.9
20260507061514 41 326 2.0 4.0 0.00 0.00 0.00 93 1011.9
20260507061014 40 0 1.0 4.0 0.00 0.00 0.00 93 1011.7
20260507060515 40 60 1.0 3.0 0.00 0.00 0.00 92 1011.7
20260507060013 40 60 0.0 0.0 0.00 0.00 0.00 93 1011.8
20260507055511 40 60 0.0 0.0 0.00 0.00 0.00 93 1011.7
20260507055006 40 60 0.0 0.0 0.00 0.00 0.00 92 1011.7
20260507054508 40 60 0.0 0.0 0.00 0.00 0.00 93 1011.7
20260507054228 40 60 0.0 0.0 0.00 0.00 0.00 92 1011.7
20260507053503 40 60 0.0 0.0 0.00 0.00 0.00 92 1011.7
20260507053243 40 60 0.0 0.0 0.00 0.00 0.00 92 1011.5
20260507052502 40 60 0.0 0.0 0.00 0.00 0.00 91 1011.5
20260507052001 40 60 0.0 0.0 0.00 0.00 0.00 91 1011.5
20260507051504 40 60 0.0 0.0 0.00 0.00 0.00 91 1011.5
20260507051000 40 60 0.0 0.0 0.00 0.00 0.00 91 1011.5
20260507050454 40 60 0.0 0.0 0.00 0.00 0.00 91 1011.5
20260507050210 40 60 0.0 0.0 0.00 0.00 0.00 91 1011.5
20260507045704 40 60 0.0 0.0 0.00 0.00 0.00 91 1011.4
20260507044940 41 60 0.0 0.0 0.00 0.00 0.00 90 1011.4
20260507044440 41 60 0.0 0.0 0.00 0.00 0.00 90 1011.3
20260507043940 41 60 0.0 0.0 0.00 0.00 0.00 90 1011.4
20260507043440 41 60 0.0 0.0 0.00 0.00 0.00 90 1011.4
20260507043204 41 60 0.0 0.0 0.00 0.00 0.00 89 1011.4
20260507042441 41 60 0.0 0.0 0.00 0.00 0.00 90 1011.4
20260507041940 41 60 0.0 0.0 0.00 0.00 0.00 90 1011.4
20260507041659 42 60 0.0 0.0 0.00 0.00 0.00 89 1011.3
20260507040937 42 60 0.0 1.0 0.00 0.00 0.00 89 1011.4
20260507040436 42 60 1.0 3.0 0.00 0.00 0.00 88 1011.3
20260507035934 42 60 1.0 3.0 0.00 0.00 0.00 89 1011.2
20260507035433 42 332 0.0 2.0 0.00 0.00 0.00 89 1011.2
20260507034930 42 113 0.0 2.0 0.00 0.00 0.00 89 1011.2
20260507034428 42 113 1.0 2.0 0.00 0.00 0.00 89 1011.0
20260507033926 42 113 0.0 2.0 0.00 0.00 0.00 89 1011.0
20260507033425 41 113 0.0 1.0 0.00 0.00 0.00 89 1011.0
20260507032924 41 113 0.0 1.0 0.00 0.00 0.00 89 1010.9
20260507032424 42 113 0.0 1.0 0.00 0.00 0.00 88 1010.8
20260507031922 42 113 0.0 2.0 0.00 0.00 0.00 88 1010.8
20260507031423 42 113 0.0 2.0 0.00 0.00 0.00 87 1010.6
20260507030920 42 113 0.0 1.0 0.00 0.00 0.00 88 1010.5
20260507030420 42 113 0.0 1.0 0.00 0.00 0.00 87 1010.6
20260507025918 42 113 0.0 1.0 0.00 0.00 0.00 88 1010.6
20260507025645 42 113 0.0 1.0 0.00 0.00 0.00 87 1010.5
20260507024918 42 113 0.0 1.0 0.00 0.00 0.00 88 1010.4
20260507024416 42 113 0.0 1.0 0.00 0.00 0.00 87 1010.3
20260507023918 42 113 0.0 1.0 0.00 0.00 0.00 87 1010.3
20260507023415 42 113 0.0 2.0 0.00 0.00 0.00 86 1010.3
20260507022921 42 113 1.0 2.0 0.00 0.00 0.00 87 1010.2
20260507022417 42 113 1.0 2.0 0.00 0.00 0.00 87 1010.2
20260507021917 42 113 0.0 2.0 0.00 0.00 0.00 87 1010.2
20260507021418 42 113 0.0 1.0 0.00 0.00 0.00 87 1010.2
20260507020918 42 113 1.0 3.0 0.00 0.00 0.00 86 1010.2
20260507020413 42 113 1.0 3.0 0.00 0.00 0.00 87 1010.2
20260507015914 42 104 0.0 3.0 0.00 0.00 0.00 86 1010.2
20260507015412 42 132 0.0 2.0 0.00 0.00 0.00 86 1010.3
20260507014914 43 132 1.0 3.0 0.00 0.00 0.00 85 1010.2
20260507014412 42 132 0.0 3.0 0.00 0.00 0.00 86 1010.1
20260507013913 42 91 0.0 0.0 0.00 0.00 0.00 86 1010.1
20260507013418 43 91 0.0 0.0 0.00 0.00 0.00 84 1010.1
20260507012914 42 91 0.0 0.0 0.00 0.00 0.00 85 1010.0
20260507012412 43 91 0.0 0.0 0.00 0.00 0.00 84 1010.1
20260507011917 43 91 0.0 0.0 0.00 0.00 0.00 84 1010.1
20260507011411 43 91 0.0 0.0 0.00 0.00 0.00 83 1010.0
20260507011134 43 91 0.0 0.0 0.00 0.00 0.00 83 1010.0
20260507010412 43 91 0.0 0.0 0.00 0.00 0.00 82 1010.1
20260507005911 44 91 0.0 2.0 0.00 0.00 0.00 82 1010.1
20260507005410 44 46 0.0 2.0 0.00 0.00 0.00 81 1010.0
20260507004911 44 0 0.0 2.0 0.00 0.00 0.00 80 1010.0
20260507004637 45 0 0.0 2.0 0.00 0.00 0.00 80 1010.0
20260507003909 45 350 0.0 0.0 0.00 0.00 0.00 78 1010.1
20260507003408 45 350 0.0 3.0 0.00 0.00 0.00 78 1010.0
20260507002907 46 350 1.0 4.0 0.00 0.00 0.00 77 1010.1
20260507002405 46 334 1.0 4.0 0.00 0.00 0.00 77 1010.0
20260507001904 46 331 1.0 4.0 0.00 0.00 0.00 76 1010.0
20260507001405 46 0 1.0 3.0 0.00 0.00 0.00 75 1010.0
20260507000912 47 300 1.0 4.0 0.00 0.00 0.00 71 1010.0
20260507000906 47 0 1.0 3.0 0.00 0.00 0.00 74 1010.0
20260506235904 48 190 2.0 4.0 0.00 0.00 0.00 68 1010.0
20260506235404 49 139 2.0 5.0 0.00 0.00 0.00 65 1010.0
20260506234903 49 135 2.0 8.0 0.00 0.00 0.00 64 1009.9
20260506234404 49 119 2.0 8.0 0.00 0.00 0.00 63 1010.0
20260506233903 50 141 3.0 8.0 0.00 0.00 0.00 62 1009.7
20260506233401 51 130 3.0 9.0 0.00 0.00 0.00 60 1009.7
20260506232902 51 148 4.0 10.0 0.00 0.00 0.00 60 1009.7
20260506232401 51 148 5.0 12.0 0.00 0.00 0.00 57 1009.7
20260506231902 51 161 5.0 12.0 0.00 0.00 0.00 60 1009.7
20260506231401 51 146 5.0 12.0 0.00 0.00 0.00 59 1009.9
20260506231351 52 150 5.0 13.0 0.00 0.00 0.00 56 1009.7
20260506230402 51 90 4.0 13.0 0.00 0.00 0.00 58 1009.7
20260506225901 52 154 5.0 11.0 0.00 0.00 0.00 58 1010.0
20260506225407 52 210 7.0 13.0 0.00 0.00 0.00 57 1009.9
20260506224901 51 134 5.0 13.0 0.00 0.00 0.00 58 1009.9
20260506224354 51 148 7.0 11.0 0.00 0.00 0.00 61 1009.9
20260506223851 51 165 8.0 11.0 0.00 0.00 0.00 60 1009.9
20260506223352 51 141 7.0 13.0 0.00 0.00 0.00 62 1009.7
20260506222852 51 161 5.0 13.0 0.00 0.00 0.00 63 1009.6
20260506222351 52 98 7.0 13.0 0.00 0.00 0.00 60 1009.7
20260506221851 52 161 7.0 13.0 0.00 0.00 0.00 57 1009.6
20260506221353 52 161 7.0 13.0 0.00 0.00 0.00 56 1009.6
20260506220851 52 147 5.0 13.0 0.00 0.00 0.00 59 1009.7
20260506220352 51 163 5.0 12.0 0.00 0.00 0.00 61 1009.7
20260506220117 52 141 7.0 12.0 0.00 0.00 0.00 59 1009.6
20260506215348 52 163 8.0 15.0 0.00 0.00 0.00 59 1009.5
20260506215117 52 176 8.0 15.0 0.00 0.00 0.00 61 1009.4
20260506214349 51 180 7.0 15.0 0.00 0.00 0.00 61 1009.5
20260506213847 52 158 5.0 13.0 0.00 0.00 0.00 61 1009.5
20260506213346 52 188 5.0 11.0 0.00 0.00 0.00 61 1009.5
20260506212847 52 161 5.0 12.0 0.00 0.00 0.00 60 1009.4
20260506212346 52 173 7.0 12.0 0.00 0.00 0.00 60 1009.3
20260506211843 52 199 7.0 14.0 0.00 0.00 0.00 61 1009.3
20260506211343 52 138 8.0 14.0 0.00 0.00 0.00 61 1009.3
20260506210842 52 174 8.0 14.0 0.00 0.00 0.00 62 1009.3
20260506210343 52 150 8.0 14.0 0.00 0.00 0.00 61 1009.3
20260506205843 53 146 7.0 13.0 0.00 0.00 0.00 61 1009.2
20260506205611 53 213 7.0 12.0 0.00 0.00 0.00 61 1009.2
20260506205125 53 227 7.0 12.0 0.00 0.00 0.00 62 1009.1
20260506204606 53 159 7.0 13.0 0.00 0.00 0.00 62 1009.2
20260506203838 52 141 8.0 13.0 0.00 0.00 0.00 64 1009.2
20260506203339 53 143 8.0 13.0 0.00 0.00 0.00 65 1009.1
20260506202840 53 145 9.0 19.0 0.00 0.00 0.00 63 1009.1
20260506202558 53 162 8.0 19.0 0.00 0.00 0.00 62 1009.2
20260506201835 53 172 7.0 13.0 0.00 0.00 0.00 63 1008.8
20260506201334 53 164 8.0 14.0 0.00 0.00 0.00 62 1009.0
20260506200833 53 169 5.0 14.0 0.00 0.00 0.00 63 1008.8
20260506200332 53 155 5.0 13.0 0.00 0.00 0.00 64 1009.1
20260506200108 53 157 5.0 13.0 0.00 0.00 0.00 67 1009.0
20260506195331 53 164 8.0 14.0 0.00 0.00 0.00 66 1008.7
20260506195052 52 164 9.0 14.0 0.00 0.00 0.00 69 1008.6
20260506194331 52 168 8.0 14.0 0.00 0.00 0.00 69 1008.7
20260506193830 53 200 5.0 13.0 0.00 0.00 0.00 68 1008.6
20260506193331 53 144 4.0 11.0 0.00 0.00 0.00 70 1008.5
20260506192830 53 167 4.0 11.0 0.00 0.00 0.00 69 1008.7
20260506192331 53 157 5.0 15.0 0.00 0.00 0.00 69 1008.6
20260506192100 53 192 7.0 15.0 0.00 0.00 0.00 70 1008.4
20260506191332 53 164 5.0 13.0 0.00 0.00 0.00 70 1008.4
20260506190830 52 154 5.0 13.0 0.00 0.00 0.00 71 1008.4
20260506190328 52 147 7.0 13.0 0.00 0.00 0.00 72 1008.2
20260506185821 53 169 7.0 13.0 0.00 0.00 0.00 71 1008.3
20260506185316 53 119 5.0 13.0 0.00 0.00 0.00 71 1008.2
20260506184810 53 140 5.0 15.0 0.00 0.00 0.00 69 1007.9
20260506184303 54 103 7.0 15.0 0.00 0.00 0.00 67 1007.9
20260506183757 54 173 8.0 15.0 0.00 0.00 0.00 67 1007.6
20260506183256 54 140 8.0 15.0 0.00 0.00 0.00 67 1007.5
20260506182759 54 131 7.0 15.0 0.00 0.00 0.00 67 1007.4
20260506182256 54 205 7.0 13.0 0.00 0.00 0.00 67 1007.3
20260506181756 54 203 7.0 16.0 0.00 0.00 0.00 66 1007.3
20260506181257 54 146 5.0 16.0 0.00 0.00 0.00 65 1007.2
20260506180758 54 156 7.0 15.0 0.00 0.00 0.00 66 1007.1
20260506180256 54 159 8.0 15.0 0.00 0.00 0.00 65 1007.1
20260506175754 54 146 8.0 15.0 0.00 0.00 0.00 66 1006.9
20260506175254 54 142 9.0 18.0 0.00 0.00 0.00 67 1007.2
20260506174754 54 129 10.0 18.0 0.00 0.00 0.00 67 1007.1
20260506174252 54 148 9.0 18.0 0.00 0.00 0.00 67 1006.9
20260506173752 54 139 8.0 14.0 0.00 0.00 0.00 69 1006.9
20260506173746 54 128 8.0 15.0 0.00 0.00 0.00 69 1006.8
20260506173252 54 130 8.0 14.0 0.00 0.00 0.00 69 1006.8
20260506172252 54 159 9.0 16.0 0.00 0.00 0.00 68 1006.8